TimeChST,TemperatureF,Dew PointF,Humidity,Sea Level PressureIn,VisibilityMPH,Wind Direction,Wind SpeedMPH,Gust SpeedMPH,PrecipitationIn,Events,Conditions,WindDirDegrees,DateUTC
12:54 AM,78.1,68.0,71,29.94,10.0,NNE,16.1,-,N/A,,Scattered Clouds,30,2013-01-07 14:54:00
1:54 AM,78.1,68.0,71,29.94,10.0,NNE,17.3,24.2,N/A,,Scattered Clouds,30,2013-01-07 15:54:00
2:54 AM,77.0,69.1,76,29.92,10.0,NE,17.3,23.0,N/A,,Partly Cloudy,40,2013-01-07 16:54:00
3:54 AM,78.1,70.0,76,29.91,10.0,NE,13.8,23.0,N/A,,Partly Cloudy,40,2013-01-07 17:54:00
4:54 AM,78.1,69.1,74,29.91,10.0,NE,17.3,27.6,N/A,,Partly Cloudy,40,2013-01-07 18:54:00
5:54 AM,78.1,69.1,74,29.92,10.0,NNE,17.3,-,N/A,,Scattered Clouds,30,2013-01-07 19:54:00
6:54 AM,77.0,68.0,74,29.94,10.0,NNE,16.1,25.3,N/A,,Partly Cloudy,30,2013-01-07 20:54:00
7:54 AM,78.1,69.1,74,29.95,10.0,NE,18.4,26.5,N/A,,Scattered Clouds,50,2013-01-07 21:54:00
8:54 AM,80.1,70.0,71,29.97,10.0,NE,18.4,26.5,N/A,,Scattered Clouds,40,2013-01-07 22:54:00
9:54 AM,82.0,71.1,69,29.97,10.0,NE,20.7,27.6,N/A,,Scattered Clouds,50,2013-01-07 23:54:00
10:54 AM,82.0,70.0,67,29.95,10.0,NE,20.7,29.9,N/A,,Mostly Cloudy,40,2013-01-08 00:54:00
11:54 AM,84.0,72.0,67,29.93,10.0,NE,17.3,27.6,N/A,,Scattered Clouds,50,2013-01-08 01:54:00
12:54 PM,82.9,71.1,67,29.91,10.0,NE,18.4,27.6,N/A,,Scattered Clouds,40,2013-01-08 02:54:00
1:54 PM,82.9,70.0,65,29.88,10.0,NE,23.0,29.9,N/A,,Scattered Clouds,40,2013-01-08 03:54:00
2:46 PM,82.4,69.8,66,29.81,10.0,NE,20.7,28.8,N/A,,Overcast,40,2013-01-08 04:46:00
2:54 PM,82.0,70.0,67,29.87,10.0,NE,21.9,28.8,N/A,,Overcast,40,2013-01-08 04:54:00
3:54 PM,82.0,72.0,71,29.87,10.0,NE,19.6,28.8,N/A,,Mostly Cloudy,50,2013-01-08 05:54:00
4:54 PM,80.1,71.1,74,29.89,10.0,NE,19.6,27.6,N/A,,Mostly Cloudy,40,2013-01-08 06:54:00
5:54 PM,79.0,71.1,77,29.90,10.0,NE,19.6,26.5,N/A,,Mostly Cloudy,50,2013-01-08 07:54:00
6:54 PM,79.0,69.1,72,29.91,10.0,NE,20.7,26.5,N/A,,Mostly Cloudy,40,2013-01-08 08:54:00
7:54 PM,79.0,70.0,74,29.92,10.0,NE,19.6,32.2,N/A,,Mostly Cloudy,40,2013-01-08 09:54:00
8:54 PM,79.0,71.1,77,29.93,10.0,NE,20.7,29.9,N/A,,Mostly Cloudy,50,2013-01-08 10:54:00
9:54 PM,79.0,71.1,77,29.93,10.0,NE,18.4,29.9,0.01,,Mostly Cloudy,40,2013-01-08 11:54:00
10:54 PM,79.0,71.1,77,29.92,10.0,NE,21.9,28.8,N/A,,Scattered Clouds,40,2013-01-08 12:54:00
11:54 PM,79.0,72.0,79,29.92,10.0,NE,21.9,28.8,N/A,,Mostly Cloudy,40,2013-01-08 13:54:00